FW0708 Weather Reports


Display with metric or nautical units.
time (UTC)temp
F
wind
direction
speed
MPH
gust
MPH
rain 1hr
in
rain 24hr
in
rain mn
in
humidity
%
barometer
mb
20260903174557 72 80 9.0 20.0 0.00 0.00 0.00 75 1011.5
20260903173102 73 351 8.0 16.0 0.00 0.00 0.00 74 1011.6
20260903171553 73 60 9.0 14.0 0.00 0.00 0.00 73 1011.8
20260903170146 74 33 3.0 12.0 0.00 0.00 0.00 72 1011.9
20260903164552 73 66 8.0 15.0 0.00 0.00 0.00 73 1012.1
20260903163047 73 341 5.0 11.0 0.00 0.00 0.00 75 1012.2
20260903161558 73 66 3.0 12.0 0.00 0.00 0.00 73 1012.2
20260903160046 72 89 7.0 12.0 0.00 0.00 0.00 72 1012.2
20260903154551 72 85 5.0 11.0 0.00 0.00 0.00 73 1012.6
20260903153040 72 70 3.0 10.0 0.00 0.00 0.00 72 1012.5
20260903151547 72 29 2.0 9.0 0.00 0.00 0.00 76 1012.4
20260903150041 71 77 5.0 8.0 0.00 0.00 0.00 74 1012.4
20260903144534 70 16 2.0 7.0 0.00 0.00 0.00 78 1012.4
20260903143034 70 54 5.0 9.0 0.00 0.00 0.00 76 1012.4
20260903141530 70 46 1.0 7.0 0.00 0.00 0.00 80 1012.5
20260903140037 69 69 3.0 6.0 0.00 0.00 0.00 84 1012.6
20260903134519 66 35 2.0 5.0 0.00 0.00 0.00 94 1012.7
20260903133015 63 69 0.0 3.0 0.00 0.00 0.00 98 1012.7
20260903131510 62 69 0.0 0.0 0.00 0.00 0.00 98 1012.7
20260903130005 59 69 0.0 0.0 0.00 0.00 0.00 98 1012.7
20260903124503 58 69 0.0 0.0 0.00 0.00 0.00 98 1012.7
20260903123001 56 69 0.0 0.0 0.00 0.00 0.00 97 1012.5
20260903121557 54 69 0.0 0.0 0.00 0.00 0.00 97 1012.7
20260903120055 53 69 0.0 0.0 0.00 0.00 0.00 97 1012.7
20260903114603 53 69 0.0 0.0 0.00 0.00 0.00 96 1012.5
20260903113047 53 69 0.0 0.0 0.00 0.00 0.00 96 1012.2
20260903111546 53 69 0.0 0.0 0.00 0.00 0.00 96 1011.9
20260903110046 54 69 0.0 0.0 0.00 0.00 0.00 96 1012.3
20260903104544 54 69 0.0 0.0 0.00 0.00 0.00 96 1012.3
20260903103044 54 69 0.0 0.0 0.00 0.00 0.00 96 1012.1
20260903101544 54 69 0.0 0.0 0.00 0.00 0.00 96 1012.0
20260903100042 54 69 0.0 0.0 0.00 0.00 0.00 96 1011.9
20260903094543 54 69 0.0 0.0 0.00 0.00 0.00 96 1011.9
20260903093051 54 69 0.0 0.0 0.00 0.00 0.00 96 1011.8
20260903091538 55 69 0.0 0.0 0.00 0.00 0.00 96 1011.7
20260903090036 55 69 0.0 0.0 0.00 0.00 0.00 96 1011.7
20260903084536 55 69 0.0 0.0 0.00 0.00 0.00 96 1011.8
20260903083033 55 69 0.0 0.0 0.00 0.00 0.00 96 1011.9
20260903081538 56 69 0.0 0.0 0.00 0.00 0.00 96 1011.9
20260903080031 56 69 0.0 0.0 0.00 0.00 0.00 96 1011.9
20260903074607 56 69 0.0 0.0 0.00 0.00 0.00 96 1012.0
20260903073013 56 69 0.0 0.0 0.00 0.00 0.00 96 1011.8
20260903071516 56 69 0.0 0.0 0.00 0.00 0.00 95 1012.1
20260903070015 56 69 0.0 0.0 0.00 0.00 0.00 95 1012.2
20260903064508 56 69 0.0 0.0 0.00 0.00 0.00 95 1012.3
20260903063008 57 69 0.0 0.0 0.00 0.00 0.00 95 1012.4
20260903061505 57 69 0.0 0.0 0.00 0.00 0.00 95 1012.4
20260903060003 57 69 0.0 0.0 0.00 0.00 0.00 95 1012.3
20260903054503 57 69 0.0 0.0 0.00 0.00 0.00 94 1012.1
20260903053103 58 69 0.0 0.0 0.00 0.00 0.00 94 1012.1
20260903051604 58 69 0.0 0.0 0.00 0.00 0.00 94 1012.1
20260903050056 58 69 0.0 0.0 0.00 0.00 0.00 94 1012.1
20260903044600 58 69 0.0 0.0 0.00 0.00 0.00 94 1012.2
20260903043052 59 69 0.0 0.0 0.00 0.00 0.00 93 1012.1
20260903041551 59 69 0.0 0.0 0.00 0.00 0.00 93 1011.9
20260903040052 59 69 0.0 0.0 0.00 0.00 0.00 92 1011.8
20260903034552 59 69 0.0 0.0 0.00 0.00 0.00 92 1012.0
20260903033050 60 69 0.0 0.0 0.00 0.00 0.00 91 1011.8
20260903031550 60 69 0.0 0.0 0.00 0.00 0.00 90 1011.9
20260903030049 60 69 0.0 0.0 0.00 0.00 0.00 89 1011.9
20260903024548 61 69 0.0 0.0 0.00 0.00 0.00 87 1011.7
20260903023048 62 69 0.0 0.0 0.00 0.00 0.00 86 1011.6
20260903021547 63 69 0.0 0.0 0.00 0.00 0.00 85 1011.5
20260903020051 64 69 0.0 0.0 0.00 0.00 0.00 83 1011.4
20260903014604 65 69 0.0 0.0 0.00 0.00 0.00 80 1011.3
20260903013046 66 69 0.0 0.0 0.00 0.00 0.00 78 1011.1
20260903011546 67 69 0.0 0.0 0.00 0.00 0.00 77 1011.0
20260903010045 69 69 0.0 0.0 0.00 0.00 0.00 74 1010.9
20260903004546 71 69 0.0 0.0 0.00 0.00 0.00 71 1010.8
20260903003043 72 69 0.0 0.0 0.00 0.00 0.00 69 1010.8
20260903001543 73 69 0.0 2.0 0.00 0.00 0.00 65 1010.8
20260903000043 74 69 0.0 4.0 0.00 0.00 0.00 64 1010.8
20260902234542 74 68 1.0 7.0 0.00 0.00 0.00 64 1010.8
20260902233042 74 81 1.0 9.0 0.00 0.00 0.00 63 1010.8
20260902231542 74 53 2.0 10.0 0.00 0.00 0.00 62 1010.7
20260902230043 75 85 4.0 9.0 0.00 0.00 0.00 62 1010.7
20260902224546 75 69 3.0 8.0 0.00 0.00 0.00 60 1010.6
20260902223041 75 57 3.0 9.0 0.00 0.00 0.00 60 1010.5
20260902221540 76 44 5.0 10.0 0.00 0.00 0.00 59 1010.5
20260902220042 76 85 4.0 9.0 0.00 0.00 0.00 59 1010.5
20260902214542 76 89 5.0 10.0 0.00 0.00 0.00 59 1010.5
20260902213039 76 58 6.0 11.0 0.00 0.00 0.00 59 1010.6
20260902211537 75 9 4.0 10.0 0.00 0.00 0.00 60 1010.6
20260902210051 76 61 6.0 11.0 0.00 0.00 0.00 59 1010.7
20260902204536 76 65 5.0 12.0 0.00 0.00 0.00 59 1010.7
20260902203035 77 74 4.0 10.0 0.00 0.00 0.00 60 1010.7
20260902201537 76 108 7.0 12.0 0.00 0.00 0.00 60 1010.7
20260902200036 76 22 5.0 11.0 0.00 0.00 0.00 60 1010.8
20260902194539 75 65 7.0 11.0 0.00 0.00 0.00 59 1010.9
20260902193036 75 33 7.0 12.0 0.00 0.00 0.00 60 1011.0
20260902191535 75 44 3.0 12.0 0.00 0.00 0.00 62 1011.1
20260902190032 75 45 7.0 10.0 0.00 0.00 0.00 63 1011.3
20260902184532 75 26 5.0 12.0 0.00 0.00 0.00 67 1011.2
20260902183031 74 37 4.0 12.0 0.00 0.00 0.00 65 1011.2
20260902181531 74 21 5.0 11.0 0.00 0.00 0.00 66 1011.2
20260902180030 75 25 4.0 12.0 0.00 0.00 0.00 67 1011.4